Current Version              Previous Version:    01  02  03  04  05  06  07  08  09  10  11  12  13  14  15  16  17  18  19  20  21  22  23  24  25  26  27  28  29  30  
   31  32  33  34  35  36  37  38  39  40  41  42  43  44  45  46  47  48  49  50  51  52  53  54  55  56  57  58  59  60  

[Printable]
612
ASUS44 KEWX 250002
RWRTX
SOUTH TEXAS REGIONAL WEATHER ROUNDUP
NATIONAL WEATHER SERVICE AUSTIN/SAN ANTONIO TX
700 PM CDT FRI OCT 24 2014

NOTE: "FAIR" INDICATED FEW OR NO CLOUDS BELOW 12,000 FEET WITH NO
SIGNIFICANT WEATHER AND/OR OBSTRUCTIONS TO VISIBILITY.

* - THESE STATIONS ARE NOT NWS OR FAA STATIONS...AND ARE NOT SUBJECT
    TO NWS AND FAA QUALITY CONTROL.

TXZ171-172-183>190-250100-
TEXAS HILL COUNTRY AND EDWARDS PLATEAU

CITY           SKY/WX    TMP DP  RH WIND       PRES   REMARKS
JUNCTION       CLEAR     81  56  42 S6        30.10S
6HR MIN TEMP:  81; 6HR MAX TEMP:  86;

*LLANO         NOT AVBL
BURNET         CLEAR     79  58  48 SE3       30.12S
6HR MIN TEMP:  79; 6HR MAX TEMP:  84;

*HORSESHOE BAY CLEAR     77  58  52 CALM      30.10R
6HR MIN TEMP:  77; 6HR MAX TEMP:  86;

*KERRVILLE     CLEAR     76  59  54 E3        30.12S
6HR MIN TEMP:  76; 6HR MAX TEMP:  83;

*FREDERICKSBRG CLEAR     76  57  51 SE3       30.12R
6HR MIN TEMP:  76; 6HR MAX TEMP:  82;

*ROCKSPRINGS   CLEAR     79  55  44 S6        30.16S
*BOERNE STAGE  MOCLDY    79  55  44 SE3       30.13R
*CASTROVILLE   CLOUDY    83  53  34 SE6       30.09R
HONDO          CLEAR     77  57  50 S6        30.10R
6HR MIN TEMP:  77; 6HR MAX TEMP:  84;

*UVALDE        CLEAR     81  58  45 SE3       30.09R
6HR MIN TEMP:  81; 6HR MAX TEMP:  88;

DEL RIO        CLEAR     81  63  54 SE5       30.06S
6HR MIN TEMP:  77; 6HR MAX TEMP:  84;

LAUGHLIN AFB   CLEAR     80  65  60 S5        30.07S
6HR MIN TEMP:  80; 6HR MAX TEMP:  84;

CARRIZO SPRGS  CLEAR     82  59  44 SE3       30.05S
$$

TXZ173-191>194-202-209-217>225-228-250100-
CENTRAL AND SOUTH CENTRAL TEXAS

CITY           SKY/WX    TMP DP  RH WIND       PRES   REMARKS
GEORGETOWN     CLEAR     79  61  53 CALM      30.09S
AUSTIN/BERGSTM CLEAR     77  61  57 E6        30.08S
6HR MIN TEMP:  77; 6HR MAX TEMP:  85;

AUSTIN/MABRY   CLEAR     79  60  52 CALM      30.09S
6HR MIN TEMP:  79; 6HR MAX TEMP:  85;

*AUSTIN/EXEC   CLEAR     77  59  53 SE5       30.09S
*LAGO VISTA    CLEAR     78  59  53 CALM      30.11S
6HR MIN TEMP:  78; 6HR MAX TEMP:  84;

SAN MARCOS     CLEAR     79  57  47 SE7       30.09R
6HR MIN TEMP:  79; 6HR MAX TEMP:  86;

NEW BRAUNFELS  CLEAR     82  58  43 SE8       30.07R
6HR MIN TEMP:  82; 6HR MAX TEMP:  88;

RANDOLPH AFB   CLEAR     77  57  50 SE6       30.09R
6HR MIN TEMP:  77; 6HR MAX TEMP:  86;

PT SAN ANTONIO NOT AVBL
SAN ANTONIO    PTCLDY    80  57  45 SE6       30.09R
6HR MIN TEMP:  80; 6HR MAX TEMP:  88;

STINSON FIELD  CLEAR     81  58  45 SE5       30.07R
6HR MIN TEMP:  81; 6HR MAX TEMP:  89;

*PLEASANTON    CLEAR     81  58  45 CALM      30.08R
6HR MIN TEMP:  81; 6HR MAX TEMP:  87;

*LA GRANGE     CLEAR     75  64  67 CALM      30.08R
6HR MIN TEMP:  75; 6HR MAX TEMP:  84;

*GIDDINGS      CLEAR     76  59  55 CALM      30.13R
*GONZALES      CLEAR     80  59  48 CALM      30.08R
6HR MIN TEMP:  80; 6HR MAX TEMP:  86;

$$

TXZ163>164-176>182-195>201-210>213-226-227-235-250100-
SOUTHEAST TEXAS

CITY           SKY/WX    TMP DP  RH WIND       PRES   REMARKS
COLLEGE STN    CLEAR     76  58  53 E3        30.09S
6HR MIN TEMP:  75; 6HR MAX TEMP:  83;

*BRYAN         CLEAR     73  60  64 CALM      30.11S
6HR MIN TEMP:  73; 6HR MAX TEMP:  81;

*CALDWELL      CLEAR     77  55  47 CALM      30.12S
*CROCKETT      CLEAR     72  64  78 CALM      30.13S
*BRENHAM       CLEAR     77  58  52 CALM      30.11R
6HR MIN TEMP:  77; 6HR MAX TEMP:  83;

HUNTSVILLE     CLEAR     73  58  59 CALM      30.10S
6HR MIN TEMP:  73; 6HR MAX TEMP:  81;

CONROE         CLEAR     67  60  78 CALM      30.10S
6HR MIN TEMP:  67; 6HR MAX TEMP:  81;

HOUSTON BUSH   PTCLDY    71  57  61 NE6       30.09R
6HR MIN TEMP:  71; 6HR MAX TEMP:  82;

HOUSTON HOBBY  PTCLDY    74  57  55 NE5       30.09R
6HR MIN TEMP:  74; 6HR MAX TEMP:  81;

*HOUSTON SW AP CLEAR     68  57  68 CALM      30.10R
6HR MIN TEMP:  68; 6HR MAX TEMP:  75;

PEARLAND       CLEAR     74  58  57 CALM      30.10S
6HR MIN TEMP:  74; 6HR MAX TEMP:  82;

HOUSTON HOOKS  CLEAR     72  58  61 CALM      30.09S
6HR MIN TEMP:  72; 6HR MAX TEMP:  80;

ELLINGTON FLD  CLEAR     75  54  46 NE5       30.10S
SUGAR LAND     CLEAR     68  60  75 CALM      30.09R
6HR MIN TEMP:  68; 6HR MAX TEMP:  83;

*HOUSTON EXEC  CLEAR     73 N/A N/A NE5       30.10S
*CLEVELAND MUN NOT AVBL
*WHARTON       CLEAR     76  56  48 NE3       30.10R
*COLUMBUS      FAIR      74  59  58 CALM      30.09R
6HR MIN TEMP:  74; 6HR MAX TEMP:  83;

$$

TXZ214>216-236>238-250100-
THE UPPER TEXAS COAST

CITY           SKY/WX    TMP DP  RH WIND       PRES   REMARKS
*ORANGE        CLEAR     66  51  59 CALM      30.11S
6HR MIN TEMP:  66; 6HR MAX TEMP:  76;

PORT ARTHUR    CLEAR     66  52  60 N3        30.09R
6HR MIN TEMP:  66; 6HR MAX TEMP:  80;

GALVESTON      CLEAR     73  57  57 N7        30.10R
6HR MIN TEMP:  71; 6HR MAX TEMP:  77;

ANGLETON       CLEAR     66  58  75 CALM      30.09S
6HR MIN TEMP:  66; 6HR MAX TEMP:  81;

*BAY CITY        N/A     73  60  63 S3        30.09R
PALACIOS       CLEAR     72  61  68 SE6       30.09R
6HR MIN TEMP:  72; 6HR MAX TEMP:  85;

$$

TXZ229>234-239>247-250100-
TEXAS COASTAL BEND AND RIO GRANDE PLAINS

CITY           SKY/WX    TMP DP  RH WIND       PRES   REMARKS
VICTORIA       CLEAR     76  57  51 E7        30.09R
6HR MIN TEMP:  76; 6HR MAX TEMP:  89;

*BEEVILLE      CLEAR     80  56  43 SE7       30.07R
6HR MIN TEMP:  80; 6HR MAX TEMP:  89;

ROCKPORT       CLEAR     75  62  64 SE8       30.08R
6HR MIN TEMP:  75; 6HR MAX TEMP:  82;

*PORT ARANSAS  CLEAR     75  60  59 E6        30.09R
6HR MIN TEMP:  75; 6HR MAX TEMP:  80;

*PORT LAVACA   CLEAR     74  63  68 E6        30.09R
6HR MIN TEMP:  74; 6HR MAX TEMP:  84;

*INGLESIDE     CLEAR     77  62  59 SE5       30.08R
CORPUS CHRISTI PTCLDY    76  62  62 SE7       30.08R
6HR MIN TEMP:  76; 6HR MAX TEMP:  84;

CORPUS NAS     CLEAR     74  64  71 E7        30.08R
6HR MIN TEMP:  74; 6HR MAX TEMP:  82;

*ROBSTOWN      HVY RAIN  81  60  48 SE9       30.08R
ALICE          CLEAR     80  58  46 E8        30.07R
6HR MIN TEMP:  80; 6HR MAX TEMP:  88;

KINGSVILLE NAS CLEAR     77  61  57 SE9       30.08R
6HR MIN TEMP:  77; 6HR MAX TEMP:  88;

COTULLA        PTCLDY    86  58  38 CALM      30.06S
6HR MIN TEMP:  85; 6HR MAX TEMP:  90;

*FAITH RANCH   CLEAR     84  57  39 S5        30.07S
LAREDO         CLEAR     86  60  41 CALM      30.09R
6HR MIN TEMP:  83; 6HR MAX TEMP:  89;

$$

TXZ248>255-250100-
DEEP SOUTH TEXAS

CITY           SKY/WX    TMP DP  RH WIND       PRES   REMARKS
BROWNSVILLE    CLEAR     76  64  66 NE7       30.09R
6HR MIN TEMP:  76; 6HR MAX TEMP:  86;

PORT ISABEL    PTCLDY    75  64  68 NE5       30.08R
6HR MIN TEMP:  75; 6HR MAX TEMP:  83;

*SOUTH PADRE   CLEAR     77  64  65 NE8       30.08S
HARLINGEN      CLEAR     74  64  71 NE6       30.08R
6HR MIN TEMP:  74; 6HR MAX TEMP:  85;

*HEBBRONVILLE  CLEAR     81  58  45 E7        30.09R
MCALLEN        CLEAR     80  64  58 E13       30.08R
6HR MIN TEMP:  80; 6HR MAX TEMP:  87;